Location: Buckhorn Peak
(37.6641°N, 120.1241°W)
Time: 19:11:19
(UTC+00:00)

Altair - Visible Passes

Search period start: 07 November 2024 00:00
Search period end: 17 November 2024 00:00
Orbit: 1501 x 1682 km, 47.2° (Epoch: 06 November)

Date Brightness Start Highest point End Pass type
(mag) Time Alt. Az. Time Alt. Az. Time Alt. Az.
07 Nov 7.5 01:48:22 10° WNW 01:57:40 84° NNE 02:07:17 10° ESE visible
07 Nov 8.6 03:53:40 10° WNW 04:01:45 34° SW 04:06:40 22° S visible
08 Nov 7.5 01:23:09 10° WNW 01:32:26 80° NNE 01:42:00 10° ESE visible
08 Nov 8.6 03:28:20 10° WNW 03:36:38 37° SW 03:44:09 13° SSE visible
09 Nov 8.5 03:03:01 10° WNW 03:11:29 41° SW 03:20:14 10° SSE visible
10 Nov 8.4 02:37:44 10° WNW 02:46:21 44° SW 02:55:14 10° SSE visible
11 Nov 8.3 02:12:27 10° WNW 02:21:12 48° SW 02:30:13 10° SSE visible
12 Nov 8.3 01:47:11 10° WNW 01:56:03 53° SW 02:05:10 10° SSE visible
12 Nov 9.8 03:56:27 10° WSW 03:59:15 12° WSW 04:02:05 10° SW visible
13 Nov 8.2 01:21:56 10° WNW 01:30:53 57° SW 01:40:05 10° SSE visible
13 Nov 9.8 03:30:07 10° W 03:34:10 14° WSW 03:38:18 10° SSW visible
14 Nov 9.8 03:04:10 10° W 03:09:06 16° SW 03:14:07 10° SSW visible
15 Nov 9.8 02:38:24 10° W 02:44:00 18° SW 02:49:43 10° SSW visible
16 Nov 9.8 02:12:45 10° W 02:18:55 20° SW 02:25:12 10° SSW visible
